GAOFEN 1-03

导读 | 豆包AI

高分一号03星(GAOFEN 1-03)是中国于2018年3月31日发射的光学遥感卫星,隶属于中国高分专项工程。卫星搭载多光谱与宽幅成像相机,具备多分辨率、大范围成像能力,可服务于国土监测、农业估产、灾害防治、环境保护等领域,为国民经济建设与地理信息应用提供稳定遥感数据支撑。

基本信息
目录编号:
43260
目录名称:
GAOFEN 1-03
国际标识:
2018-031B
轨道中心:
EARTH
卫星名称:
GAOFEN 1-03
卫星全名:
--
卫星状态:
在轨 (已飞行2905 天)
发射日期:
2018-03-31 UTC
国别 :
中国 (CN)
星等 :
--
轨道信息
数据来源 国际轨道数据
星历时间: 2026-03-13T23:38:50+0800
11小时前
查看轨道信息
半长轴: 7018.761km
偏心率: 0.0003262
轨道倾角: 98.063°
近地点辐角 40.610°
升交点赤经 135.267°
平近点角 319.535°
近地点: 638.334km
远地点: 642.914km
周期: 97.533分钟
每日圈数: 14.764276
详细信息
使用方式:
暂无
2D轨道图
3D轨道图
轨道高度分析图
轨道倾角分析图
轨道综合分析图
查看轨道综合分析图